User: anonymous   Login
Location: Unspecified
(0.0000°N, 0.0000°E)
Time: 20:37:58
(UTC+00:00)
Language:

KITSAT 1 - Orbit

View from above orbital plane
View from above orbital plane
View from above satellite
View from above satellite

Ground track
Ground track

The orbit data is extracted from the following two-line orbital elements,

1 22077U 92052B   22268.36895556 -.00000063  00000-0 -54934-5 0  9994
2 22077  66.0827 251.8472 0013497 237.2917 229.3284 12.86549044414623
Epoch (UTC): 25 September 2022 08:51:17
Eccentricity: 0.0013497
inclination: 66.0827°
perigee height: 1305 km
apogee height: 1325 km
right ascension of ascending node: 251.8472°
argument of perigee: 237.2917°
revolutions per day: 12.86549044
mean anomaly at epoch: 229.3284°
orbit number at epoch: 41462

The dashed part of the orbit path shows where the satellite is in the earth's shadow,  

DLR